Jefferson, NC

2:50 AM EST on January 16, 2018 (GMT -0500)
Ashe County

Weather History for KGEV - December, 1998

Change the Weather History Date:

Sunday, December 13, 1998

  Actual Average Record
Temperature  
Mean Temperature 44 °F -  
Max Temperature 50 °F 46 °F 66 °F (2007)
Min Temperature 39 °F 26 °F 7 °F (1982)
Degree Days  
Heating Degree Days 20    
Moisture  
Dew Point 41 °F    
Average Humidity 91    
Maximum Humidity 100    
Minimum Humidity 87    
Precipitation  
Precipitation 1.66 in - - ()
Sea Level Pressure  
Sea Level Pressure 29.94 in    
Wind  
Wind Speed 2 mph (NNE)    
Max Wind Speed 10 mph    
Max Gust Speed 17 mph    
Visibility 2 miles    
Events Fog , Rain    
Averages and records for this station are not official NWS values.
T = Trace of Precipitation, MM = Missing Value Source: NWS Daily Summary

Daily Weather History Graph

Daily Weather History Graph

Search for Another Location

Airport or City:

Trip Planner

Search our weather history database for the weather conditions in past years. The results will help you decide how hot, cold, wet, or windy it might be!

Date:

Astronomy

Dec. 13, 1998 Rise Set
Actual Time 7:28 AM EST 5:11 PM EST
Civil Twilight 6:59 AM EST 5:39 PM EST
Nautical Twilight 6:27 AM EST 6:12 PM EST
Astronomical Twilight 5:56 AM EST 6:43 PM EST
Moon 2:27 AM EST (12/13) 2:19 PM EST (12/13)
Length of Visible Light 10h 39m
Length of Day
9h 42m
Waning Crescent, 23% of the Moon is Illuminated
Dec 13
Waning Crescent
Dec 18
New
Dec 26
First Quarter
Jan 1
Full
Jan 9
Last Quarter

Hourly Weather History & Observations

Time (EST) Temp. Windchill Dew Point Humidity Pressure Visibility Wind Dir Wind Speed Gust Speed Precip Events Conditions
12:15 AM 41.0 °F 39.0 °F 37.4 °F 87% 30.11 in 0.8 mi SE 3.5 mph - 0.01 in Fog , Rain Rain
12:35 AM 41.0 °F 39.0 °F 37.4 °F 87% 30.11 in 0.5 mi SE 3.5 mph - 0.05 in Fog , Rain Rain
12:55 AM 39.2 °F 35.9 °F 37.4 °F 93% 30.09 in 0.5 mi SE 4.6 mph - 0.14 in Fog , Rain Heavy Rain
1:15 AM 39.2 °F 37.0 °F 37.4 °F 93% 30.09 in 0.5 mi SE 3.5 mph - 0.09 in Fog , Rain Heavy Rain
1:35 AM 41.0 °F - 37.4 °F 87% 30.08 in 0.5 mi Calm Calm - 0.14 in Fog , Rain Rain
1:55 AM 41.0 °F - 37.4 °F 87% 30.07 in 1.0 mi Calm Calm - 0.22 in Fog , Rain Heavy Rain
2:15 AM 41.0 °F - 37.4 °F 87% 30.06 in 0.8 mi Calm Calm - 0.09 in Fog , Rain Rain
2:35 AM 41.0 °F - 37.4 °F 87% 30.05 in 0.8 mi Calm Calm - 0.14 in Fog , Rain Rain
2:55 AM 41.0 °F - 37.4 °F 87% 30.04 in 0.8 mi Calm Calm - 0.17 in Fog , Rain Rain
3:15 AM 41.0 °F - 37.4 °F 87% 30.02 in 1.2 mi Calm Calm - 0.05 in Fog , Rain Rain
3:35 AM 41.0 °F 39.0 °F 37.4 °F 87% 30.01 in 0.8 mi NNW 3.5 mph - 0.13 in Fog , Rain Heavy Rain
3:55 AM 41.0 °F - 37.4 °F 87% 30.00 in 1.8 mi Calm Calm - 0.24 in Fog , Rain Heavy Rain
4:15 AM 41.0 °F - 37.4 °F 87% 30.00 in 1.5 mi Calm Calm - 0.12 in Fog , Rain Rain
4:35 AM 41.0 °F - 37.4 °F 87% 30.00 in 0.8 mi Calm Calm - 0.20 in Fog , Rain Rain
4:55 AM 41.0 °F - 37.4 °F 87% 29.98 in 1.5 mi Calm Calm - 0.25 in Fog , Rain Light Rain
5:15 AM 41.0 °F - 37.4 °F 87% 29.98 in 1.0 mi Calm Calm - 0.06 in Fog , Rain Heavy Rain
5:35 AM 41.0 °F - 37.4 °F 87% 29.97 in 0.8 mi Calm Calm - 0.10 in Fog , Rain Rain
5:55 AM 41.0 °F - 37.4 °F 87% 29.98 in 0.5 mi Calm Calm - 0.12 in Fog , Rain Rain
6:15 AM 41.0 °F - 39.2 °F 93% 29.98 in 1.0 mi Calm Calm - 0.09 in Fog , Rain Rain
6:35 AM 41.0 °F - 37.4 °F 87% 29.97 in 1.0 mi Calm Calm - 0.18 in Fog , Rain Rain
6:55 AM 41.0 °F - 37.4 °F 87% 29.96 in 0.5 mi Calm Calm - 0.20 in Fog , Rain Light Rain
7:15 AM 41.0 °F - 37.4 °F 87% 29.97 in 0.5 mi Calm Calm - 0.02 in Fog , Rain Rain
7:35 AM 41.0 °F - 37.4 °F 87% 29.97 in 0.8 mi Calm Calm - 0.07 in Fog , Rain Rain
7:55 AM 41.0 °F - 39.2 °F 93% 29.97 in 3.5 mi Calm Calm - 0.12 in Fog , Rain Rain
8:15 AM 41.0 °F - 41.0 °F 100% 29.97 in 4.0 mi Calm Calm - 0.01 in Fog , Rain Light Rain
8:35 AM 41.0 °F 39.0 °F 39.2 °F 93% 29.97 in 0.5 mi NW 3.5 mph - 0.02 in Fog , Rain Rain
8:55 AM 41.0 °F - 39.2 °F 93% 29.96 in 0.2 mi Calm Calm - 0.03 in Fog , Rain Rain
9:15 AM 41.0 °F - 39.2 °F 93% 29.96 in 0.2 mi Calm Calm - 0.02 in Fog , Rain Rain
9:35 AM 41.0 °F 39.0 °F 39.2 °F 93% 29.96 in 0.5 mi WSW 3.5 mph - 0.06 in Fog , Rain Light Rain
9:55 AM 42.8 °F 37.5 °F 41.0 °F 93% 29.95 in 0.8 mi WNW 9.2 mph - 0.07 in Fog , Rain Light Rain
10:15 AM 42.8 °F - 41.0 °F 93% 29.95 in 1.0 mi Calm Calm - 0.07 in Fog , Rain Rain
10:35 AM 42.8 °F - 41.0 °F 93% 29.93 in 10.0 mi Calm Calm - 0.08 in Rain Light Rain
10:55 AM 42.8 °F - 42.8 °F 100% 29.93 in 7.0 mi Calm Calm - 0.08 in   Overcast
11:15 AM 44.6 °F - 42.8 °F 93% 29.92 in 1.0 mi Calm Calm - 0.01 in Fog , Rain Rain
11:35 AM 44.6 °F 43.1 °F 42.8 °F 93% 29.92 in 10.0 mi SE 3.5 mph - 0.01 in   Overcast
11:55 AM 44.6 °F - 42.8 °F 93% 29.90 in 5.0 mi Calm Calm - 0.01 in Fog Fog
12:15 PM 44.6 °F 43.1 °F 42.8 °F 93% 29.88 in 10.0 mi East 3.5 mph - N/A   Overcast
12:35 PM 44.6 °F - 42.8 °F 93% 29.86 in 0.8 mi Calm Calm - N/A Fog Fog
12:55 PM 46.4 °F - 44.6 °F 93% 29.86 in 4.0 mi Calm Calm - N/A Fog Fog
1:15 PM 46.4 °F - 44.6 °F 93% 29.85 in 2.0 mi Calm Calm - N/A Fog Fog
1:35 PM 46.4 °F 45.2 °F 44.6 °F 93% 29.85 in 1.0 mi ESE 3.5 mph - N/A Fog Fog
1:55 PM 46.4 °F - 44.6 °F 93% 29.83 in 1.2 mi Calm Calm - N/A Fog Fog
2:15 PM 46.4 °F - 44.6 °F 93% 29.83 in 2.5 mi Calm Calm - N/A Fog Fog
2:35 PM 48.2 °F - 46.4 °F 93% 29.83 in 1.8 mi Calm Calm - N/A Fog Fog
2:55 PM 50.0 °F - 48.2 °F 94% 29.83 in 5.0 mi Calm Calm - N/A Fog Fog
3:15 PM 50.0 °F - 48.2 °F 94% 29.83 in 1.8 mi NNE 3.5 mph - N/A Fog Fog
3:35 PM 50.0 °F - 48.2 °F 94% 29.84 in 0.5 mi Calm Calm - N/A Fog Fog
3:55 PM 50.0 °F - 48.2 °F 94% 29.84 in 0.2 mi NNE 3.5 mph - 0.00 in Fog Light Drizzle
4:15 PM 50.0 °F - 48.2 °F 94% 29.85 in 0.2 mi Calm Calm - 0.00 in Fog Light Drizzle
4:35 PM 46.4 °F 45.2 °F 44.6 °F 93% 29.85 in 0.5 mi North 3.5 mph - N/A Fog Fog
4:55 PM 46.4 °F - 44.6 °F 93% 29.86 in 0.2 mi Calm Calm - N/A Fog Fog
5:15 PM 46.4 °F - 44.6 °F 93% 29.86 in 0.2 mi Calm Calm - N/A Fog Fog
5:35 PM 46.4 °F - 44.6 °F 93% 29.86 in 1.5 mi Calm Calm - N/A Fog Fog
5:55 PM 46.4 °F 43.5 °F 44.6 °F 93% 29.88 in 1.2 mi NW 5.8 mph - N/A Fog Fog
6:15 PM 46.4 °F 41.5 °F 44.6 °F 93% 29.88 in 5.0 mi WNW 10.4 mph - 0.00 in Fog Light Drizzle
6:35 PM 46.4 °F 43.5 °F 44.6 °F 93% 29.89 in 10.0 mi West 5.8 mph 17.3 mph 0.01 in   Overcast
6:55 PM 46.4 °F - 44.6 °F 93% 29.89 in 10.0 mi Calm Calm - 0.01 in   Overcast
7:15 PM 46.4 °F 45.2 °F 44.6 °F 93% 29.90 in 7.0 mi North 3.5 mph - N/A   Overcast
7:35 PM 44.6 °F 40.2 °F 42.8 °F 93% 29.91 in 10.0 mi NNW 8.1 mph - N/A   Overcast
7:55 PM 44.6 °F 39.2 °F 42.8 °F 93% 29.90 in 10.0 mi NW 10.4 mph 17.3 mph N/A   Overcast
8:15 PM 44.6 °F 39.2 °F 41.0 °F 87% 29.91 in 10.0 mi NNW 10.4 mph - N/A   Overcast
8:35 PM 42.8 °F 40.1 °F 41.0 °F 93% 29.92 in 10.0 mi North 4.6 mph - N/A   Mostly Cloudy
8:55 PM 42.8 °F 38.6 °F 41.0 °F 93% 29.92 in 10.0 mi NNW 6.9 mph - N/A   Mostly Cloudy
9:15 PM 42.8 °F 38.0 °F 41.0 °F 93% 29.92 in 10.0 mi NW 8.1 mph - N/A   Overcast
9:35 PM 42.8 °F 39.3 °F 41.0 °F 93% 29.93 in 10.0 mi NW 5.8 mph 16.1 mph N/A   Overcast
9:55 PM 42.8 °F 37.5 °F 41.0 °F 93% 29.93 in 10.0 mi NW 9.2 mph 20.7 mph N/A   Overcast
10:15 PM 42.8 °F 38.6 °F 41.0 °F 93% 29.93 in 10.0 mi NW 6.9 mph - N/A   Overcast
10:35 PM 42.8 °F 38.0 °F 41.0 °F 93% 29.94 in 10.0 mi NW 8.1 mph 16.1 mph N/A   Overcast
10:55 PM 42.8 °F 36.6 °F 39.2 °F 87% 29.94 in 10.0 mi NW 11.5 mph 17.3 mph N/A   Overcast
11:15 PM 42.8 °F 36.2 °F 37.4 °F 81% 29.94 in 10.0 mi NW 12.7 mph 17.3 mph N/A   Overcast
11:35 PM 42.8 °F 38.0 °F 37.4 °F 81% 29.95 in 10.0 mi NNW 8.1 mph - N/A   Overcast
11:55 PM 42.8 °F 38.0 °F 37.4 °F 81% 29.95 in 10.0 mi NNW 8.1 mph 17.3 mph N/A   Overcast